Location: Sungai Bunut
(2.6333°N, 113.7333°E)
Time: 11:45:04
(UTC+00:00)

A-11 Canister half - Pass Details

Date: 03 December 2023
Orbit: 1526 x 1682 km, 47.3° (Epoch: 04 March)

Event Time Altitude Azimuth Distance (km) Brightness Sun altitude
Exits shadow 19:31:19 35° 29° (NNE) 2,312 9.8 -38.5°
Maximum altitude 19:32:49 37° 48° (NE) 2,243 9.9 -38.2°
Drops below altitude 10° 19:41:11 10° 112° (ESE) 3,703 11.8 -36.3°
Sets 19:44:31 0° 120° (ESE) 4,678 12.5 -35.6°
